Location: Oberkirch
(48.5323°N, 8.0787°E)
Time: 06:41:59
(UTC+00:00)

AO-85 - Pass Details

Date: 23 March 2026
Orbit: 507 x 686 km, 64.8° (Epoch: 14 April)

Event Time Altitude Azimuth Distance (km) Brightness Sun altitude
Exits shadow 03:48:47 14° 310° (NW) 1,532 ? -16.3°
Maximum altitude 03:49:59 15° 331° (NNW) 1,442 ? -16.1°
Drops below altitude 10° 03:52:18 10° 8° (N) 1,735 ? -15.8°
Sets 03:55:14 0° 32° (NNE) 2,620 ? -15.3°
